Overview Statistics Trail Chart Weather Telemetry Raw packets
 

This is the latest recevied weather packets stored in our database for station/object NK7E-2. If no packets are shown the sender has not sent any weather packets the latest 10 day(s).

<< 32 33 34 35 36 37 38 >>
Time Temp. Humidity Pressure Rain* Wind** Luminosity Snow
1787964016 34.44° C 29% 1026.4 hPa 0 mm - - -
1787963416 33.89° C 29% 1026.3 hPa 0 mm - - -
1787962816 34.44° C 29% 1026.1 hPa 0.25 mm - - -
1787962216 34.44° C 28% 1026.5 hPa 0.25 mm - - -
1787961623 34.44° C 28% 1026.5 hPa 0.25 mm - - -
1787961016 34.44° C 29% 1026.6 hPa 0.25 mm - - -
1787960416 33.89° C 32% 1026.6 hPa 0.25 mm - - -
1787959816 33.89° C 30% 1026.7 hPa 0.25 mm - - -
1787959216 33.33° C 29% 1027.1 hPa 0 mm - - -
1787958616 36.11° C 27% 1028.1 hPa 0 mm - - -
1787958016 38.33° C 21% 1027.2 hPa 0 mm - - -
1787957416 38.33° C 22% 1027.5 hPa 0 mm - - -
1787956816 38.33° C 23% 1027.6 hPa 0 mm - - -
1787956216 38.89° C 23% 1027.7 hPa 0 mm - - -
1787955616 38.33° C 23% 1027.4 hPa 0 mm - - -
1787955015 37.22° C 26% 1027.4 hPa 0 mm - - -
1787954418 36.67° C 26% 1027.6 hPa 0 mm - - -
1787953819 36.11° C 27% 1027.6 hPa 0.25 mm - - -
1787953215 36.67° C 27% 1027.7 hPa 1.52 mm - - -
1787952615 35° C 30% 1027.6 hPa 1.52 mm - - -
1787952015 33.33° C 39% 1028 hPa 1.52 mm - - -
1787951417 32.22° C 42% 1028.1 hPa 1.52 mm - - -
1787950815 32.22° C 38% 1028.3 hPa 1.52 mm - - -
1787950217 32.78° C 39% 1028.8 hPa 1.27 mm - - -
1787949617 36.67° C 32% 1029.9 hPa 0 mm - - -

* Rain latest hour (hover to see other rain measurements)
** Current wind speed in m/s (hover to see current wind gust speed)